Regional Weather Roundup
Issued by NWS Albany, NY

Home | Current Version | Previous Version | Text Only | Print | Product List | Glossary On
Versions: 1 2 3 4 5 6 7 8 9 10 11 12 13 14 15 16 17 18 19 20 21 22 23 24 25 26 27
000
ASUS41 KALY 262310
RWRALY

NEW YORK STATE HOURLY WEATHER ROUNDUP
NATIONAL WEATHER SERVICE ALBANY NY
700 PM EDT MON SEP 26 2016

NOTE: "FAIR" INDICATES FEW OR NO CLOUDS BELOW 12,000 FEET WITH NO
SIGNIFICANT WEATHER AND/OR NO OBSTRUCTIONS TO VISIBILITY.

NYZ032-033-038>043-046>054-057>066-NYZ062>081-082-084-270000-
EAST


CITY           SKY/WX    TMP DP  RH WIND       PRES   REMARKS
ALBANY         CLOUDY    66  48  52 S12       29.98S
GLENS FALLS    CLOUDY    59  48  67 CALM      29.97F
POUGHKEEPSIE   CLOUDY    67  50  54 S7        30.02S
NEWBURGH       MOCLDY    66  54  63 S12       30.05F
MONTGOMERY     CLOUDY    68  52  56 S8        30.02S
WHITE PLAINS   MOCLDY    65  49  56 S9        30.05F
ISLIP          MOCLDY    65  50  58 S9        30.07F
NEW YORK CITY  CLOUDY    69  49  48 S13       30.05F
CENTRAL PARK   CLOUDY    67  49  52 S8        30.08F
$$

NYZ005>009-017-018-044>046-055-056-270000-
CENTRAL


CITY           SKY/WX    TMP DP  RH WIND       PRES   REMARKS
FULTON         CLOUDY    67  55  65 CALM      29.86F
SYRACUSE       LGT RAIN  66  52  60 S8G17     29.87F
ROME           CLOUDY    66  53  63 SE9       29.93R
ELMIRA         CLOUDY    64  54  69 S13G20    29.93R
BINGHAMTON     CLOUDY    59  50  72 S15G24    29.97F
MONTICELLO     CLOUDY    61  50  67 S8        30.05F
$$

NYZ026>034-041>043-087-270000-
NORTH


CITY           SKY/WX    TMP DP  RH WIND       PRES   REMARKS
WATERTOWN      LGT RAIN  64  53  67 S5        29.85S
FORT DRUM      NOT AVBL
OGDENSBURG     FAIR      62  53  72 CALM      29.85F
MASSENA        MOCLDY    62  46  55 E5        29.87F
SARANAC LAKE   PTCLDY    56  42  59 SW5       29.91F
PLATTSBURGH    CLOUDY    61  42  49 S13       29.92F
$$

NYZ001>004-010>016-019>021-085-270000-
WEST


CITY           SKY/WX    TMP DP  RH WIND       PRES   REMARKS
NIAGARA FALLS  MOCLDY    63  58  83 SW7       29.86F
BUFFALO        LGT RAIN  61  59  93 SW6       29.87S FOG
DUNKIRK        CLOUDY    62  59  90 S9        29.88R
JAMESTOWN      CLOUDY    59  55  88 SW10      29.93R
WELLSVILLE     LGT RAIN  62  58  86 SW5       29.95R
ROCHESTER      LGT RAIN  65  62  90 SW6       29.86S
PENN YAN       CLOUDY    67  54  63 S9G20     29.90R
$$

             KEY
       WCI = WIND CHILL INDEX
       VSB = VISIBILITY
       HX  = HEAT INDEX
$$




USA.gov is the U.S. government's official web portal to all federal, state and local government web resources and services.